Location: Academy at Carrie F Thomas
(32.8490°N, 97.2053°W)
Time: 07:09:15
(UTC+00:00)

Cosmos 2228 Rocket - Pass Details

Date: 11 July 2022
Orbit: 618 x 651 km, 82.5° (Epoch: 14 August)

Event Time Altitude Azimuth Distance (km) Brightness Sun altitude
Rises 08:32:59 0° 6° (N) 2,932 7.5 -28.2°
Reaches altitude 10° 08:35:27 10° 17° (NNE) 2,025 6.6 -27.9°
Maximum altitude 08:39:26 30° 79° (E) 1,138 4.7 -27.5°
Enters shadow 08:40:36 27° 107° (ESE) 1,241 4.7 -27.3°
